Regional Weather Roundup
Issued by NWS Cleveland, OH

Home | Current Version | Previous Version | Graphics & Text | Print | Product List | Glossary On
Versions: 1 2 3 4 5 6 7 8 9 10 11 12 13 14 15 16 17 18 19 20 21 22 23 24 25 26 27 28 29 30 31 32 33 34 35 36 37 38 39 40 41 42 43 44 45 46 47 48 49 50
034
ASUS41 KCLE 032210
RWRCLE
OHIO REGIONAL WEATHER ROUNDUP
NATIONAL WEATHER SERVICE WILMINGTON, OH
600 PM EDT TUE MAY 03 2016

NOTE: "FAIR" INDICATES FEW OR NO CLOUDS BELOW 12,000 FEET WITH NO
SIGNIFICANT WEATHER AND/OR OBSTRUCTIONS TO VISIBILITY.

OHZ001>008-015>018-024>027-034-035-043-044-032300-
   NORTHWEST OHIO

CITY           SKY/WX    TMP DP  RH WIND       PRES   REMARKS
DEFIANCE       PTSUNNY   61  39  44 W3        29.83F
FINDLAY        PTSUNNY   63  38  39 W6        29.82F
TOLEDO EXPRESS FAIR      61  38  42 W6        29.81F
TOLEDO EXEC    PTSUNNY   59  44  57 S7        29.83F
LIMA           CLOUDY    59  44  57 W8        29.84F
$$

OHZ009>014-019>023-028>033-038-089-032300-
   NORTHEAST OHIO

CITY           SKY/WX    TMP DP  RH WIND       PRES   REMARKS
CLE-HOPKINS    PTSUNNY   58  38  47 NE6       29.86F
CLE-LAKEFRONT  FAIR      52  42  69 CALM      29.84F
CUY CO. ARPT   MOSUNNY   57  39  51 NW7       29.85S
LORAIN-ELYRIA  CLOUDY    57  35  43 NE3       29.84F
ASHTABULA      FAIR      55  39  54 NE6       29.83F
AKRON-CANTON   PTSUNNY   60  39  45 NW7       29.82S
WOOSTER        CLOUDY    58  41  53 NW8       29.84S
MANSFIELD      CLOUDY    55  44  66 NW7       29.84S
YOUNGSTOWN     PTSUNNY   59  39  47 N10       29.80F
$$

OHZ042-051>053-060>062-070>072-077>081-032300-
  SOUTHWEST OHIO

CITY           SKY/WX    TMP DP  RH WIND       PRES   REMARKS
CINC-COVINGTON CLOUDY    56  48  74 W8        29.88S
CINC-LUNKEN    CLOUDY    59  48  67 NW6       29.88S
HAMILTON       CLOUDY    59  48  67 W8        29.89S
DAYTON         CLOUDY    57  44  62 NW7       29.87S
WRIGHT-PAT AFB CLOUDY    58  48  68 VRB3      29.86S
DAYTON GENERAL CLOUDY    58  45  62 W3        29.86S
WILMINGTON     CLOUDY    57  47  69 NW6       29.86F
$$

OHZ036-037-039>041-045>050-054>059-063>069-073>076-082>088-032300-
  CENTRAL AND SOUTHEAST OHIO

CITY           SKY/WX    TMP DP  RH WIND       PRES   REMARKS
COLUMBUS       LGT RAIN  56  47  71 CALM      29.84S
OSU AIRPORT    CLOUDY    58  45  62 W6        29.84F
BOLTON FIELD   CLOUDY    57  48  72 CALM      29.88R
RICKENBACK AFB CLOUDY    56  47  71 NW9       29.85R
NEWARK         LGT RAIN  60  46  59 W6        29.83S
MARION         CLOUDY    57  44  62 W6        29.85S
LANCASTER      CLOUDY    58  48  69 W8        29.85S
ZANESVILLE     CLOUDY    61  46  57 NW6       29.83S
NEW PHILLY     CLOUDY    61  42  49 NW8       29.82S
$$




USA.gov is the U.S. government's official web portal to all federal, state and local government web resources and services.